Погода в Наримановой

Россия / Тюменская область     57°22′24″N   65°05′44″E
темп.,
°C
ветер,
м/с
пор.,
м/с
влажн.,
%
обл.,
%
осадки,
мм/ч
давл.,
гПа
погр.,
м
18 мая, вт
вт1823:00+18з31159100 0.3 1013376
02:00+17з3669100 0.0 1012141
05:00+16зюз3977100 0.1 1012229
08:00+20с245636 0.0 1012375
11:00+22ссз354512 0.0 10131564
14:00+21с6753100 0.1 10141272
17:00+18ссв6758100 0.2 10161464
20:00+15ссв696228 0.0 10181073
19 мая, ср
ср1923:00+12св6966100 0.0 10211112
02:00+13св4758100 0.0 10221318
05:00+12ссв36634 0.0 1023665
08:00+13ссв455572 0.0 10241060
11:00+16ссв45405 0.0 10241522
14:00+19ссв353347 0.0 10241805
17:00+20ссв3432100 0.0 10231982
20:00+16ссв2347100 0.0 102358
20 мая, чт
чт2023:00+12всв2258100 0.0 102432
02:00+11ююв226213 0.0 102423
05:00+10ююз236684 0.0 102465
08:00+16зюз464752 0.0 1023431
11:00+22з563396 0.0 10211405
14:00+25зсз57285 0.0 10202087
17:00+26зсз57255 0.0 10182079
20:00+22з22400 0.0 101829
21 мая, пт
пт2123:00+17зюз35480 0.0 101969
02:00+15з365331 0.0 101990
05:00+15з35575 0.0 102075
08:00+22зсз12395 0.0 1020273
11:00+28ююз11285 0.0 10201046
14:00+29ююз22255 0.0 10192814
17:00+29ююз232699 0.0 10182990
20:00+24юз37425 0.0 1018176
22 мая, сб
сб2223:00+19юз36495 0.0 101994
02:00+17юз23515 0.0 101838
05:00+15ю36545 0.0 101993
08:00+22ююз36395 0.0 1018295
11:00+28ююз57245 0.0 10172403
14:00+29ююз672553 0.0 10163295
17:00+25зюз584159 0.0 10161085
20:00+22юз36470 0.0 1015143